[[{"header":{"parameterUnit":"m.s-1","parameterCategory":2,"la1":30.2991,"la2":30.254,"lo1":-89.0895,"lo2":-89.0444,"dy":0.0017,"dx":0.0017,"nx":28,"ny":28,"refTime":"2025-04-10T21:00:00:Z","depth":"0","parameterNumber":2,"parameterNumberName":"U-component_of_CURRENTS"},"data":[0,0,0,0,0,0,0,0,0,0,0,0,0,0,0,0,0,0,0,0,0,0,0,0,0,0,0,0,0,0,0,0,0,0,0,0,0,0,0,0,0,0,0,0,0,0,0,0,0,0,0,0,0,0,0,0,0,0,0.1615,0.1618,0,0.175,0.1751,0.1752,0.1761,0.1761,0.176,0.176,0.1729,0.1729,0.1728,0,0,0,0,0,0,0,0,0,0,0,0,0,0.1392,0.1395,0.1615,0.1618,0.1621,0.175,0.1751,0.1752,0.1761,0.1761,0.176,0.176,0.1729,0.1729,0.1728,0,0,0,0,0,0,0,0,0,0,0,0,0,0.1493,0.1396,0.1615,0.1649,0.1655,0.175,0.1751,0.1752,0.1761,0.1761,0.176,0.1759,0.1729,0.1729,0.1728,0.1738,0,0,0.1726,0.1726,0,0,0,0,0,0,0,0,0.1487,0.15,0.1642,0.1647,0.1653,0.1748,0.1662,0.1743,0.1762,0.1709,0.176,0.1759,0.1728,0.1727,0.1741,0.1737,0.1735,0.1726,0.1726,0.1726,0.1725,0,0,0,0,0,0,0,0.148,0.1494,0.1657,0.1645,0.1652,0.1668,0.168,0.1677,0.1708,0.1713,0.1717,0.1751,0.1728,0.1741,0.174,0.1735,0.1726,0.1726,0.1725,0.1725,0.1628,0.1626,0,0,0,0,0,0,0.1487,0.1488,0.1653,0.1662,0.158,0.1674,0.1687,0.1709,0.1712,0.1717,0.1751,0.1751,0.1743,0.174,0.1738,0.1728,0.1726,0.1725,0.1725,0.163,0.1628,0.1625,0,0,0,0,0,0,0.1481,0.1499,0.1648,0.1588,0.1609,0.1679,0.1704,0.1713,0.1745,0.1745,0.1744,0.1778,0.1742,0.1739,0.1701,0.1728,0.1725,0.1724,0.1633,0.163,0.1626,0.1722,0,0,0,0,0,0,0.1474,0.1496,0.1509,0.1588,0.1613,0.1672,0.1706,0.1716,0.1771,0.1772,0.1768,0.1763,0.1741,0.1701,0.17,0.1727,0.1724,0.1636,0.1631,0.1628,0.1721,0.1722,0.1723,0,0,0,0,0,0.1465,0.1509,0.1508,0.1529,0.1629,0.1672,0.1683,0.1724,0.1773,0.1757,0.1751,0.1764,0.1674,0.1699,0.1698,0.1726,0.1638,0.1633,0.1628,0.1721,0.1722,0.1722,0,0,0,0,0,0,0.1416,0.1517,0.1518,0.1586,0.1603,0.1677,0.1692,0.1742,0.1737,0.1734,0.1745,0.1737,0.1717,0.1686,0.1715,0.1672,0.1655,0.165,0.1726,0.1727,0.1728,0.1731,0.1723,0,0,0,0,0,0.1412,0.1473,0.1526,0.1573,0.1575,0.1635,0.1667,0.169,0.1712,0.1714,0.1721,0.1704,0.1695,0.1682,0.165,0.1638,0.1646,0.1643,0.1643,0.1645,0.1638,0.1651,0.1655,0.1609,0.1609,0.1609,0,0,0.1423,0.1476,0.1517,0.1567,0.1583,0.1588,0.1647,0.1682,0.1716,0.1708,0.173,0.1713,0.1687,0.1663,0.1652,0.1645,0.1667,0.1639,0.1641,0.1633,0.1646,0.1652,0.1657,0.1606,0.1606,0.1607,0,0,0.1432,0.1486,0.1503,0.152,0.1546,0.1574,0.1589,0.1641,0.1677,0.1705,0.1699,0.1686,0.169,0.166,0.1658,0.1638,0.1673,0.1629,0.1647,0.1661,0.1667,0.1672,0.1736,0.1745,0.1629,0.1629,0.1629,0,0.1416,0.1466,0.1508,0.1503,0.1546,0.1568,0.158,0.1612,0.1655,0.1679,0.1706,0.17,0.1696,0.1672,0.1669,0.1651,0.1673,0.1668,0.1671,0.1675,0.1679,0.1742,0.1752,0.1633,0.1632,0.1632,0.1632,0,0.1427,0.1453,0.1462,0.1471,0.1497,0.1522,0.1564,0.1579,0.1655,0.1691,0.1707,0.1696,0.1685,0.1694,0.1701,0.1701,0.1718,0.1685,0.1693,0.1691,0.1756,0.1765,0.1638,0.1637,0.1636,0.1635,0,0,0.141,0.1465,0.1454,0.147,0.1504,0.1528,0.1562,0.1599,0.1636,0.1665,0.1728,0.1721,0.1713,0.1702,0.1689,0.1712,0.1802,0.1721,0.172,0.1827,0.1879,0.2086,0.2115,0.1783,0.1783,0.1784,0.1934,0,0.1387,0.1399,0.1446,0.1465,0.1481,0.1532,0.1569,0.1601,0.1658,0.1697,0.171,0.1738,0.1717,0.1735,0.1744,0.1806,0.182,0.1767,0.1824,0.1826,0.2046,0.2129,0.2139,0.2291,0.1943,0.1944,0.1945,0,0.1352,0.1389,0.1418,0.1496,0.1504,0.1518,0.1592,0.1636,0.1668,0.1719,0.1715,0.1731,0.1771,0.1758,0.1835,0.181,0.1834,0.1871,0.1877,0.2038,0.2049,0.2218,0.2319,0.2217,0.1959,0.1958,0.1957,0,0.1338,0.1363,0.1411,0.1441,0.1514,0.1547,0.1582,0.1622,0.1679,0.1723,0.1773,0.1775,0.1855,0.1856,0.1984,0.1906,0.2113,0.2002,0.2183,0.2198,0.2201,0.2218,0.2242,0.2003,0.2002,0.2002,0.2001,0,0.1328,0.1348,0.1398,0.1451,0.1479,0.1541,0.1602,0.1621,0.1685,0.174,0.1768,0.184,0.1891,0.202,0.2033,0.2229,0.2151,0.2226,0.226,0.2239,0.2257,0.2161,0.2158,0.2008,0.2006,0.2005,0.2004,0,0.1285,0.1327,0.1377,0.1464,0.1485,0.1497,0.1605,0.1645,0.1713,0.1796,0.1825,0.1952,0.216,0.2247,0.2358,0.2373,0.2444,0.2528,0.2557,0.2594,0.2644,0.2649,0.2578,0.2489,0.2724,0.273,0.2735,0,0.1278,0.1307,0.1384,0.1402,0.1436,0.1492,0.1544,0.1629,0.1688,0.1869,0.1908,0.215,0.2306,0.2633,0.2766,0.2903,0.2686,0.2951,0.2777,0.2708,0.2733,0.2479,0.2384,0.2811,0.2817,0.2821,0.2824,0,0.1277,0.1289,0.1336,0.1381,0.1418,0.1477,0.1559,0.161,0.1743,0.1827,0.1997,0.215,0.2553,0.2779,0.3071,0.3128,0.2857,0.305,0.2921,0.2801,0.2574,0.2486,0.2677,0.2864,0.286,0.2857,0.2855,0.2853,0.1244,0.1238,0.1306,0.1323,0.1373,0.1435,0.1484,0.1603,0.1702,0.1835,0.2005,0.2225,0.2616,0.3062,0.3144,0.3329,0.3156,0.3198,0.3214,0.2956,0.2863,0.322,0.3488,0.3488,0.3487,0.3487,0.3487,0,0.1182,0.1185,0.1251,0.1267,0.1312,0.1364,0.1473,0.1522,0.162,0.1823,0.1964,0.2358,0.2691,0.2999,0.3414,0.3436,0.3125,0.3372,0.2925,0.2819,0.3099,0.3097,0.3364,0.3364,0.3364,0.3364,0.3364,0.3364,0.1124,0.1133,0.1179,0.1202,0.1233,0.1279,0.1328,0.1422,0.1565,0.1798,0.203,0.2248,0.2821,0.3296,0.35,0.3444,0.3084,0.307,0.2922,0.3076,0.3052,0.3028,0.3014,0.3259,0.326,0.2406,0.2401,0.2398]},{"header":{"parameterUnit":"m.s-1","parameterCategory":2,"la1":30.2991,"la2":30.254,"lo1":-89.0895,"lo2":-89.0444,"dy":0.0017,"dx":0.0017,"nx":28,"ny":28,"refTime":"2025-04-10T21:00:00:Z","depth":"0","parameterNumber":3,"parameterNumberName":"V-component_of_CURRENTS"},"data":[0,0,0,0,0,0,0,0,0,0,0,0,0,0,0,0,0,0,0,0,0,0,0,0,0,0,0,0,0,0,0,0,0,0,0,0,0,0,0,0,0,0,0,0,0,0,0,0,0,0,0,0,0,0,0,0,0,0,0.0101,0.0102,0,0.0114,0.0113,0.0112,0.0019,0.0017,0.0015,0.0014,0.0022,0.0024,0.0026,0,0,0,0,0,0,0,0,0,0,0,0,0,0.001,0.0011,0.0101,0.0102,0.0103,0.0114,0.0113,0.0112,0.0019,0.0017,0.0015,0.0013,0.0022,0.0024,0.0026,0,0,0,0,0,0,0,0,0,0,0,0,0,0.0029,0.0011,0.0101,0.0065,0.0063,0.0114,0.0113,0.0112,0.0019,0.0017,0.0014,0.0012,0.0021,0.0024,0.0026,0.0093,0,0,0.0034,0.0036,0,0,0,0,0,0,0,0,0.0028,0.0031,0.007,0.0068,0.0066,0.0071,0.0085,0.0109,0.002,0.0025,0.0014,0.0011,0.0047,0.0047,0.0041,0.0093,0.0094,0.0035,0.0036,0.0037,0.0038,0,0,0,0,0,0,0,0.0027,0.003,0.0095,0.0071,0.0069,0.0055,0.0053,0.0088,0.0042,0.0024,0.002,0.0039,0.0044,0.0038,0.004,0.0094,0.0035,0.0037,0.0039,0.004,0.0072,0.0071,0,0,0,0,0,0,0.0048,0.0029,0.0095,0.0097,0.0052,0.0059,0.0057,0.0063,0.0041,0.0039,0.0041,0.0035,0.0035,0.0037,0.004,0.0015,0.0037,0.004,0.0041,0.0073,0.0072,0.0071,0,0,0,0,0,0,0.0046,0.0054,0.0095,0.0072,0.0077,0.0064,0.0072,0.0065,0.0059,0.0056,0.005,0.0043,0.0033,0.0037,0.0007,0.0018,0.0041,0.0044,0.0074,0.0073,0.0072,0.0031,0,0,0,0,0,0,0.0043,0.0052,0.0049,0.0073,0.008,0.0115,0.0075,0.0068,0.008,0.0071,0.0057,0.0054,0.0031,0.0002,0.0009,0.0023,0.0046,0.0075,0.0073,0.0072,0.0034,0.0029,0.0025,0,0,0,0,0,0.004,0.0069,0.0048,0.0056,0.008,0.0117,0.0118,0.0093,0.0083,0.0078,0.0027,0.0055,-0.0001,0.0003,0.0012,0.0026,0.0075,0.0074,0.0072,0.0036,0.003,0.0025,0,0,0,0,0,0,0.0029,0.0064,0.0041,0.0076,0.0086,0.0105,0.0107,0.0111,0.0074,0.0055,0.004,0.0033,0.0003,0.0028,0.0033,0.0029,0.0048,0.0048,0.0017,0.0012,0.0008,0.0015,0.0048,0,0,0,0,0,0.0028,0.0058,0.0074,0.0103,0.01,0.0106,0.0117,0.0109,0.0097,0.0079,0.0068,0.0047,0.0011,0.0017,-0.0008,0.0017,0.0011,0.0033,0.0029,0.0025,0.0035,-0.0025,-0.0034,0.0066,0.0066,0.0066,0,0,0.0029,0.0063,0.0071,0.0103,0.0099,0.0099,0.0101,0.0126,0.0126,0.0092,0.0071,0.0028,0.0005,-0.0023,-0.0025,0.0002,-0.0002,0.0023,0.002,0.0032,-0.0028,-0.0038,-0.0047,0.0065,0.0065,0.0065,0,0,0.0061,0.007,0.0086,0.0097,0.0117,0.0115,0.0128,0.014,0.0129,0.0116,0.0061,0.001,0.0016,-0.0034,-0.005,-0.0072,-0.0044,-0.005,-0.0038,-0.0097,-0.0106,-0.0114,-0.0115,-0.0123,-0.0028,-0.0028,-0.0028,0,0.0048,0.0083,0.0097,0.0112,0.0121,0.0123,0.0124,0.0126,0.0128,0.0127,0.01,0.0024,0.0,-0.0052,-0.0084,-0.008,-0.0089,-0.002,-0.0104,-0.0112,-0.0119,-0.0119,-0.0128,-0.003,-0.003,-0.0029,-0.0029,0,0.0076,0.0097,0.0116,0.0117,0.012,0.0145,0.0139,0.0141,0.0133,0.0133,0.0084,0.0008,-0.0029,-0.0047,-0.0076,-0.0125,-0.0106,-0.0126,-0.0093,-0.0132,-0.0129,-0.0137,-0.0033,-0.0032,-0.0032,-0.0031,0,0,0.0084,0.0118,0.0131,0.0124,0.0132,0.0144,0.0138,0.0141,0.0145,0.0114,0.0108,0.0006,-0.0017,-0.004,-0.0082,-0.0132,-0.0203,-0.0139,-0.0141,-0.0142,-0.0292,-0.0274,-0.028,-0.0243,-0.0245,-0.0246,-0.0262,0,0.0095,0.0132,0.0143,0.0154,0.0154,0.0149,0.0149,0.0152,0.0139,0.0136,0.0076,0.0036,-0.0012,-0.0047,-0.0108,-0.0178,-0.0227,-0.0194,-0.0251,-0.0251,-0.0234,-0.0291,-0.0259,-0.0271,-0.0269,-0.027,-0.0271,0,0.0117,0.0148,0.0159,0.0176,0.0171,0.0167,0.016,0.0163,0.0159,0.0151,0.0105,0.0072,0.0006,-0.0049,-0.0173,-0.0145,-0.0219,-0.0281,-0.0284,-0.0256,-0.0249,-0.0235,-0.0285,-0.0411,-0.0283,-0.0282,-0.0281,0,0.0136,0.0165,0.0178,0.0183,0.0186,0.0184,0.0178,0.017,0.018,0.016,0.0161,0.0084,0.0052,-0.0065,-0.0162,-0.0174,-0.0293,-0.0324,-0.0377,-0.0374,-0.0351,-0.0343,-0.0532,-0.0442,-0.0442,-0.0442,-0.0441,0,0.0166,0.0185,0.0188,0.0202,0.0212,0.0197,0.0204,0.0195,0.0191,0.0222,0.0169,0.0171,0.0038,-0.0024,-0.0139,-0.0255,-0.0272,-0.0381,-0.0393,-0.036,-0.0353,-0.0463,-0.0548,-0.0442,-0.0442,-0.0442,-0.0442,0,0.0189,0.0199,0.0226,0.0233,0.0223,0.0234,0.023,0.0242,0.0231,0.0265,0.0265,0.0239,0.0178,0.0055,-0.0105,-0.0209,-0.0403,-0.0387,-0.0304,-0.0309,-0.0479,-0.0565,-0.0723,-0.0757,-0.0446,-0.0445,-0.0445,0,0.0205,0.021,0.0243,0.0262,0.0265,0.0271,0.0277,0.0263,0.0283,0.0321,0.0348,0.0315,0.0337,0.0138,-0.006,-0.0237,-0.0384,-0.0355,-0.0404,-0.0493,-0.0599,-0.064,-0.066,-0.0374,-0.0374,-0.0373,-0.0373,0,0.0212,0.0226,0.0253,0.0299,0.0315,0.0347,0.0358,0.0381,0.0399,0.0449,0.0528,0.0554,0.0402,0.0267,0.0013,-0.0138,-0.0428,-0.035,-0.0491,-0.0604,-0.0614,-0.0648,-0.032,-0.0368,-0.0368,-0.0369,-0.0369,-0.0369,0.0219,0.0245,0.028,0.0333,0.037,0.0436,0.0479,0.0525,0.0599,0.0718,0.0697,0.0808,0.0569,0.0249,0.0007,-0.0381,-0.0402,-0.0507,-0.061,-0.0645,-0.0683,-0.0315,-0.0355,-0.0355,-0.0356,-0.0356,-0.0356,0,0.0223,0.0247,0.0297,0.0385,0.0459,0.047,0.0542,0.0625,0.0761,0.09,0.0994,0.1015,0.0654,0.0298,-0.0235,-0.0562,-0.0677,-0.0755,-0.0831,-0.0845,-0.0559,-0.056,-0.0588,-0.0588,-0.0588,-0.0588,-0.0588,-0.0588,0.0228,0.027,0.0311,0.0441,0.0509,0.0619,0.0684,0.0832,0.0966,0.1231,0.1387,0.1471,0.133,0.0151,-0.0586,-0.0807,-0.1041,-0.1115,-0.1218,-0.1058,-0.1043,-0.1028,-0.105,-0.1181,-0.1182,-0.1421,-0.1425,-0.1427]}],[{"header":{"parameterUnit":"m.s-1","parameterCategory":2,"la1":30.2991,"la2":30.254,"lo1":-89.0895,"lo2":-89.0444,"dy":0.0017,"dx":0.0017,"nx":28,"ny":28,"refTime":"2025-04-10T21:00:00:Z","depth":"2","parameterNumber":2,"parameterNumberName":"U-component_of_CURRENTS"},"data":[0,0,0,0,0,0,0,0,0,0,0,0,0,0,0,0,0,0,0,0,0,0,0,0,0,0,0,0,0,0,0,0,0,0,0,0,0,0,0,0,0,0,0,0,0,0,0,0,0,0,0,0,0,0,0,0,0,0,0.1187,0.1184,0,0.1195,0.1198,0.1201,0.1443,0.1447,0.145,0.1453,0.1317,0.1311,0.1305,0,0,0,0,0,0,0,0,0,0,0,0,0,0.1124,0.1128,0.1187,0.1184,0.1181,0.1194,0.1198,0.1201,0.1443,0.1447,0.145,0.1454,0.132,0.1312,0.1304,0,0,0,0,0,0,0,0,0,0,0,0,0,0.1177,0.113,0.1188,0.1278,0.1284,0.1194,0.1198,0.1202,0.1442,0.1447,0.1451,0.1456,0.1322,0.1313,0.1303,0.1149,0,0,0.1273,0.1269,0,0,0,0,0,0,0,0,0.1174,0.1184,0.1268,0.1271,0.1277,0.1293,0.1124,0.1165,0.1441,0.1418,0.1453,0.1458,0.1269,0.1264,0.1307,0.1143,0.1137,0.1272,0.1266,0.1262,0.1259,0,0,0,0,0,0,0,0.1171,0.1182,0.1226,0.1263,0.1268,0.1226,0.1246,0.1135,0.1342,0.1421,0.143,0.1374,0.1277,0.1316,0.1304,0.1135,0.1273,0.1264,0.1258,0.1254,0.1145,0.1148,0,0,0,0,0,0,0.1109,0.1181,0.1225,0.1222,0.1197,0.1222,0.1245,0.1311,0.1346,0.1347,0.137,0.1384,0.1331,0.1316,0.13,0.1297,0.1262,0.1253,0.1248,0.1143,0.1146,0.1149,0,0,0,0,0,0,0.111,0.1118,0.1224,0.1166,0.1172,0.1217,0.1289,0.1308,0.1342,0.1303,0.131,0.1379,0.1334,0.1314,0.1319,0.1286,0.1249,0.124,0.1139,0.1144,0.1148,0.1173,0,0,0,0,0,0,0.1111,0.1122,0.1152,0.1166,0.1172,0.1182,0.1281,0.1304,0.1283,0.1304,0.1309,0.1306,0.1336,0.1335,0.131,0.1272,0.1232,0.1135,0.1141,0.1146,0.1168,0.1178,0.1186,0,0,0,0,0,0.1111,0.1161,0.1158,0.1158,0.1218,0.1177,0.1182,0.1246,0.1277,0.1298,0.1377,0.1305,0.1353,0.133,0.1299,0.1257,0.1133,0.1139,0.1146,0.1165,0.1176,0.1186,0,0,0,0,0,0,0.1159,0.1185,0.1185,0.1244,0.1192,0.1206,0.1224,0.1207,0.1282,0.1344,0.1321,0.1323,0.133,0.129,0.1264,0.126,0.1232,0.1233,0.1257,0.1267,0.1275,0.13,0.1224,0,0,0,0,0,0.116,0.1208,0.1178,0.1202,0.1203,0.1189,0.1173,0.1213,0.1245,0.1288,0.1268,0.1297,0.1324,0.1299,0.1319,0.125,0.1244,0.1219,0.1228,0.1234,0.1246,0.124,0.1247,0.1171,0.1171,0.1171,0,0,0.1132,0.1176,0.1175,0.1206,0.1212,0.119,0.121,0.1218,0.1155,0.1241,0.1214,0.1308,0.1327,0.1355,0.1342,0.1308,0.1263,0.1243,0.1248,0.1256,0.1247,0.1254,0.126,0.1176,0.1175,0.1174,0,0,0.1114,0.12,0.122,0.121,0.1201,0.12,0.1173,0.1178,0.1166,0.1084,0.1241,0.1333,0.1209,0.1346,0.1356,0.1385,0.1328,0.1378,0.1394,0.1388,0.1393,0.1397,0.1423,0.1429,0.1356,0.1357,0.1357,0,0.1098,0.1161,0.1193,0.1218,0.1223,0.1186,0.1197,0.112,0.1104,0.1128,0.1059,0.1178,0.119,0.1329,0.1422,0.1388,0.1414,0.134,0.1393,0.1397,0.1401,0.1427,0.1433,0.1359,0.1358,0.1358,0.1358,0,0.1086,0.1132,0.1155,0.1195,0.1189,0.1212,0.1121,0.1096,0.102,0.0986,0.1036,0.1104,0.121,0.1222,0.1311,0.1428,0.1452,0.1417,0.1351,0.1409,0.1435,0.1441,0.1361,0.1361,0.136,0.136,0,0,0.1097,0.1149,0.115,0.1167,0.1231,0.1204,0.1144,0.112,0.1103,0.1,0.0988,0.1095,0.1216,0.1256,0.1403,0.1416,0.1487,0.1457,0.1456,0.1459,0.1526,0.1577,0.1588,0.1473,0.1474,0.1474,0.1541,0,0.1098,0.1145,0.1183,0.1167,0.1205,0.1224,0.1162,0.1137,0.107,0.1028,0.1052,0.1115,0.1175,0.1312,0.1327,0.1457,0.1504,0.1475,0.1494,0.1495,0.1509,0.1596,0.147,0.1522,0.1546,0.1547,0.1548,0,0.109,0.1148,0.1194,0.1226,0.1248,0.1228,0.1277,0.1205,0.1183,0.114,0.1217,0.1246,0.1364,0.133,0.1447,0.1439,0.1527,0.1555,0.1556,0.1597,0.1557,0.1468,0.1532,0.1558,0.1557,0.1556,0.1555,0,0.1063,0.1134,0.1191,0.121,0.1245,0.1275,0.1283,0.1309,0.1281,0.1292,0.1327,0.1368,0.1442,0.1434,0.153,0.1508,0.1589,0.1521,0.1649,0.1653,0.1545,0.1538,0.1618,0.1618,0.1618,0.1618,0.1617,0,0.1094,0.1085,0.1187,0.1172,0.1259,0.13,0.135,0.1344,0.1381,0.142,0.1451,0.1493,0.1486,0.153,0.1529,0.1611,0.1576,0.1689,0.1679,0.1558,0.1553,0.1571,0.1565,0.162,0.162,0.1619,0.1619,0,0.1055,0.1088,0.1114,0.1192,0.1226,0.1291,0.1366,0.1378,0.1466,0.1515,0.1548,0.1612,0.1715,0.1721,0.1761,0.1694,0.1697,0.1779,0.1668,0.1646,0.1759,0.1753,0.1841,0.1843,0.1845,0.1847,0.1849,0,0.1048,0.1074,0.1125,0.1154,0.1201,0.1301,0.1346,0.1401,0.1441,0.1581,0.1596,0.1783,0.1849,0.1894,0.1841,0.1831,0.1911,0.1776,0.1701,0.1803,0.1784,0.1776,0.1768,0.1569,0.1568,0.1567,0.1566,0,0.1059,0.106,0.1083,0.1128,0.1174,0.1254,0.1332,0.1381,0.148,0.158,0.1663,0.1728,0.1861,0.1811,0.1922,0.1859,0.1715,0.1767,0.1879,0.1551,0.1557,0.1535,0.1534,0.156,0.156,0.1561,0.1561,0.1561,0.1041,0.1091,0.1058,0.1134,0.1179,0.1223,0.1251,0.1339,0.1422,0.1564,0.1612,0.1704,0.172,0.1791,0.1758,0.1745,0.1801,0.1715,0.1712,0.1711,0.1687,0.1698,0.1724,0.1725,0.1727,0.1728,0.1729,0,0.1046,0.1049,0.1064,0.109,0.1118,0.1134,0.1246,0.1253,0.1375,0.1509,0.1577,0.1483,0.156,0.1649,0.1598,0.1567,0.146,0.1566,0.1433,0.1441,0.1448,0.1405,0.1371,0.137,0.1369,0.1369,0,0,0.0999,0.0975,0.1001,0.1028,0.1063,0.1059,0.1122,0.1159,0.1253,0.1307,0.1392,0.1466,0.1572,0.1453,0.1439,0.144,0.142,0.1386,0.1668,0.1519,0.1525,0.1528,0.1472,0,0,0,0,0]},{"header":{"parameterUnit":"m.s-1","parameterCategory":2,"la1":30.2991,"la2":30.254,"lo1":-89.0895,"lo2":-89.0444,"dy":0.0017,"dx":0.0017,"nx":28,"ny":28,"refTime":"2025-04-10T21:00:00:Z","depth":"2","parameterNumber":3,"parameterNumberName":"V-component_of_CURRENTS"},"data":[0,0,0,0,0,0,0,0,0,0,0,0,0,0,0,0,0,0,0,0,0,0,0,0,0,0,0,0,0,0,0,0,0,0,0,0,0,0,0,0,0,0,0,0,0,0,0,0,0,0,0,0,0,0,0,0,0,0,0.0132,0.0134,0,0.0156,0.0155,0.0154,0.0027,0.0026,0.0024,0.0022,0.0035,0.0037,0.0038,0,0,0,0,0,0,0,0,0,0,0,0,0,0.0004,0.0005,0.0132,0.0134,0.0136,0.0157,0.0155,0.0153,0.0028,0.0026,0.0023,0.0022,0.0034,0.0036,0.0039,0,0,0,0,0,0,0,0,0,0,0,0,0,0.0027,0.0005,0.0131,0.0091,0.0089,0.0157,0.0155,0.0153,0.0028,0.0026,0.0023,0.0021,0.0033,0.0036,0.0039,0.0109,0,0,0.0048,0.0049,0,0,0,0,0,0,0,0,0.0026,0.0029,0.0095,0.0094,0.0093,0.0104,0.0116,0.0145,0.0029,0.0029,0.0022,0.0019,0.0073,0.0072,0.0053,0.0109,0.011,0.0048,0.005,0.0051,0.0052,0,0,0,0,0,0,0,0.0024,0.0028,0.012,0.0098,0.0097,0.0083,0.0081,0.0119,0.0049,0.0029,0.0025,0.0062,0.0068,0.005,0.0053,0.011,0.0048,0.0051,0.0052,0.0054,0.0085,0.0084,0,0,0,0,0,0,0.0065,0.0027,0.012,0.0123,0.0076,0.0089,0.0086,0.0086,0.0049,0.0047,0.0064,0.0057,0.0046,0.0049,0.0053,0.0027,0.0051,0.0054,0.0055,0.0086,0.0085,0.0084,0,0,0,0,0,0,0.0061,0.0071,0.0119,0.0094,0.0101,0.0096,0.0097,0.0089,0.0074,0.0079,0.0072,0.0061,0.0044,0.0049,0.0013,0.003,0.0055,0.0058,0.0087,0.0086,0.0084,0.0044,0,0,0,0,0,0,0.0057,0.0069,0.0064,0.0096,0.0105,0.0143,0.0101,0.0092,0.0111,0.0099,0.0075,0.0072,0.0043,0.0008,0.0016,0.0035,0.006,0.0088,0.0086,0.0085,0.0047,0.0042,0.0038,0,0,0,0,0,0.0051,0.0077,0.0063,0.0075,0.0104,0.0146,0.0145,0.012,0.0114,0.0096,0.004,0.0073,0.0004,0.0008,0.0018,0.0039,0.0089,0.0087,0.0085,0.0049,0.0043,0.0038,0,0,0,0,0,0,0.0021,0.007,0.0054,0.0089,0.0108,0.0131,0.0134,0.0141,0.0089,0.0066,0.0054,0.0045,0.0015,0.0038,0.0044,0.004,0.0059,0.0059,0.0029,0.0024,0.0019,0.0027,0.0062,0,0,0,0,0,0.002,0.0047,0.008,0.0111,0.0113,0.0127,0.0142,0.013,0.0116,0.009,0.0084,0.006,0.0022,0.0026,-0.0001,0.0022,0.0018,0.0043,0.0038,0.0034,0.0045,-0.0013,-0.0022,0.0077,0.0077,0.0077,0,0,0.0015,0.006,0.0065,0.0107,0.0108,0.011,0.012,0.0144,0.0143,0.0109,0.0084,0.0044,0.0015,-0.0018,-0.0019,0.0006,0.0008,0.0032,0.0028,0.0042,-0.0016,-0.0026,-0.0034,0.0076,0.0076,0.0076,0,0,0.0043,0.0052,0.0067,0.0082,0.0119,0.0117,0.0135,0.0153,0.0137,0.0127,0.007,0.0023,0.0033,-0.0025,-0.0044,-0.0068,-0.0034,-0.0044,-0.0034,-0.0091,-0.01,-0.0107,-0.0108,-0.0116,-0.0024,-0.0024,-0.0024,0,0.0031,0.0063,0.0079,0.01,0.0118,0.0124,0.0127,0.0121,0.0128,0.0131,0.0111,0.0046,0.0019,-0.004,-0.0079,-0.0076,-0.0084,-0.0013,-0.0098,-0.0106,-0.0113,-0.0112,-0.012,-0.0026,-0.0026,-0.0026,-0.0026,0,0.0054,0.0076,0.0096,0.0102,0.0106,0.013,0.0126,0.0129,0.0132,0.0137,0.0097,0.002,-0.0011,-0.0027,-0.0065,-0.0116,-0.0098,-0.0118,-0.0084,-0.0126,-0.0122,-0.0129,-0.003,-0.0029,-0.0028,-0.0028,0,0,0.0067,0.0097,0.0113,0.0105,0.0116,0.0125,0.0118,0.0125,0.0129,0.0113,0.0114,0.0016,0.0001,-0.0025,-0.0071,-0.0122,-0.0193,-0.0133,-0.0135,-0.0132,-0.028,-0.0303,-0.0313,-0.0234,-0.0236,-0.0237,-0.025,0,0.0083,0.0124,0.0132,0.0139,0.0137,0.0132,0.0132,0.0132,0.0125,0.0124,0.0073,0.0035,-0.0001,-0.0035,-0.0093,-0.0172,-0.0217,-0.0185,-0.024,-0.024,-0.0257,-0.0325,-0.027,-0.0282,-0.0258,-0.0259,-0.026,0,0.0106,0.014,0.0151,0.016,0.0155,0.0148,0.0141,0.0142,0.0136,0.0133,0.0097,0.0067,-0.0001,-0.0044,-0.0164,-0.0139,-0.0209,-0.0269,-0.0272,-0.0283,-0.0279,-0.0241,-0.0297,-0.0272,-0.0271,-0.027,-0.0269,0,0.0123,0.0155,0.0168,0.0172,0.0169,0.0169,0.0162,0.0153,0.0162,0.0135,0.014,0.0065,0.0036,-0.0073,-0.0172,-0.0173,-0.0304,-0.0317,-0.0397,-0.0396,-0.0353,-0.0347,-0.0423,-0.0423,-0.0423,-0.0423,-0.0423,0,0.0158,0.0176,0.0177,0.019,0.02,0.0179,0.0187,0.0177,0.0168,0.0197,0.0145,0.0147,0.002,-0.0049,-0.0159,-0.0287,-0.0287,-0.0404,-0.042,-0.0364,-0.0358,-0.0352,-0.0344,-0.0423,-0.0423,-0.0423,-0.0423,0,0.0179,0.0192,0.0213,0.0218,0.0208,0.022,0.0214,0.0222,0.0212,0.0242,0.024,0.0208,0.0133,0.0004,-0.0158,-0.0257,-0.0395,-0.0447,-0.0345,-0.0351,-0.0439,-0.0433,-0.0521,-0.0522,-0.0523,-0.0524,-0.0525,0,0.0194,0.0197,0.0227,0.0248,0.0253,0.026,0.0264,0.0247,0.0263,0.0298,0.0321,0.027,0.0265,0.0033,-0.0166,-0.0356,-0.0399,-0.045,-0.0472,-0.0453,-0.0459,-0.045,-0.0442,-0.0408,-0.0408,-0.0407,-0.0407,0,0.0199,0.0214,0.0241,0.0283,0.0298,0.0334,0.0344,0.0363,0.0379,0.0425,0.0488,0.0487,0.0295,0.0128,-0.016,-0.0287,-0.0417,-0.0454,-0.048,-0.0405,-0.0352,-0.0356,-0.0351,-0.0406,-0.0406,-0.0406,-0.0406,-0.0406,0.0208,0.0234,0.0264,0.0318,0.0355,0.0422,0.0464,0.0506,0.0575,0.0675,0.0626,0.0666,0.0398,0.0086,-0.0163,-0.0395,-0.0407,-0.0484,-0.0482,-0.048,-0.0479,-0.0434,-0.0497,-0.0498,-0.0499,-0.0499,-0.0499,0,0.0214,0.0239,0.0283,0.0372,0.0442,0.0453,0.0525,0.0598,0.0727,0.0823,0.0881,0.0688,0.0451,0.0186,-0.0154,-0.0414,-0.041,-0.0473,-0.0412,-0.0412,-0.0413,-0.0407,-0.0406,-0.0407,-0.0407,-0.0407,0,0,0.022,0.026,0.0298,0.0428,0.0495,0.06,0.0666,0.0797,0.0897,0.1032,0.108,0.0953,0.0591,0.0345,-0.0005,-0.0175,-0.022,-0.0204,-0.0253,-0.0138,-0.0135,-0.0398,-0.0388,0,0,0,0,0]}],[{"header":{"parameterUnit":"m.s-1","parameterCategory":2,"la1":30.2991,"la2":30.254,"lo1":-89.0895,"lo2":-89.0444,"dy":0.0017,"dx":0.0017,"nx":28,"ny":28,"refTime":"2025-04-10T21:00:00:Z","depth":"4","parameterNumber":2,"parameterNumberName":"U-component_of_CURRENTS"},"data":[0,0,0,0,0,0,0,0,0,0,0,0,0,0,0,0,0,0,0,0,0,0,0,0,0,0,0,0,0,0,0,0,0,0,0,0,0,0,0,0,0,0,0,0,0,0,0,0,0,0,0,0,0,0,0,0,0,0,-0.0458,-0.0459,0,-0.0458,-0.0457,-0.0456,-0.0424,-0.0425,-0.0425,-0.0425,-0.0503,-0.0505,-0.0506,0,0,0,0,0,0,0,0,0,0,0,0,0,-0.0387,-0.0388,-0.0458,-0.0459,-0.046,-0.0458,-0.0457,-0.0455,-0.0424,-0.0425,-0.0425,-0.0425,-0.0502,-0.0504,-0.0507,0,0,0,0,0,0,0,0,0,0,0,0,0,-0.0394,-0.0388,-0.0458,-0.0453,-0.0454,-0.0458,-0.0456,-0.0455,-0.0424,-0.0425,-0.0425,-0.0425,-0.0502,-0.0504,-0.0507,-0.0515,0,0,-0.0515,-0.0516,0,0,0,0,0,0,0,0,-0.0394,-0.0395,-0.0453,-0.0454,-0.0454,-0.0452,-0.046,-0.0483,-0.0424,-0.0423,-0.0425,-0.0426,-0.0501,-0.0503,-0.0484,-0.0519,-0.0522,-0.0515,-0.0517,-0.0518,-0.0519,0,0,0,0,0,0,0,-0.0393,-0.0395,-0.0446,-0.0454,-0.0455,-0.0437,-0.0437,-0.0463,-0.0452,-0.0423,-0.0424,-0.0442,-0.05,-0.0481,-0.0486,-0.0523,-0.0515,-0.0518,-0.0519,-0.052,-0.0631,-0.0632,0,0,0,0,0,0,-0.0419,-0.0395,-0.0446,-0.0447,-0.0438,-0.0439,-0.0438,-0.0442,-0.045,-0.0454,-0.0442,-0.0441,-0.0477,-0.0483,-0.0489,-0.0543,-0.0518,-0.0521,-0.0522,-0.0629,-0.0631,-0.0632,0,0,0,0,0,0,-0.0417,-0.0423,-0.0446,-0.0431,-0.0434,-0.0441,-0.0445,-0.0443,-0.0445,-0.0466,-0.0469,-0.0451,-0.0477,-0.0485,-0.0503,-0.0545,-0.0522,-0.0524,-0.0628,-0.063,-0.0632,-0.0625,0,0,0,0,0,0,-0.0415,-0.0422,-0.0415,-0.0432,-0.0437,-0.0464,-0.0446,-0.0443,-0.0461,-0.0459,-0.0475,-0.048,-0.0478,-0.0499,-0.0506,-0.0548,-0.0527,-0.0626,-0.0629,-0.0631,-0.0623,-0.0626,-0.0629,0,0,0,0,0,-0.0412,-0.0408,-0.0414,-0.042,-0.0432,-0.0466,-0.0464,-0.0462,-0.0461,-0.0463,-0.0457,-0.0481,-0.0521,-0.0501,-0.0509,-0.0553,-0.0625,-0.0628,-0.0631,-0.0622,-0.0626,-0.0629,0,0,0,0,0,0,-0.0375,-0.0407,-0.0413,-0.0419,-0.0451,-0.0465,-0.0469,-0.0476,-0.0469,-0.0476,-0.0477,-0.0482,-0.0521,-0.0536,-0.0514,-0.0595,-0.0587,-0.0592,-0.0578,-0.0581,-0.0584,-0.0586,-0.0529,0,0,0,0,0,-0.0367,-0.0375,-0.0412,-0.0423,-0.044,-0.0458,-0.0467,-0.0483,-0.0493,-0.049,-0.0486,-0.0505,-0.0537,-0.0555,-0.0575,-0.0609,-0.0596,-0.0652,-0.0655,-0.0656,-0.0665,-0.0655,-0.0657,-0.0642,-0.0642,-0.0642,0,0,-0.0361,-0.0382,-0.0386,-0.0417,-0.0436,-0.0461,-0.0461,-0.0501,-0.0501,-0.0505,-0.0483,-0.0513,-0.0547,-0.0576,-0.0599,-0.0596,-0.0651,-0.066,-0.0661,-0.0669,-0.0658,-0.0659,-0.066,-0.0644,-0.0643,-0.0643,0,0,-0.0371,-0.0373,-0.0388,-0.0411,-0.0463,-0.0477,-0.0499,-0.0519,-0.0501,-0.0504,-0.0515,-0.0558,-0.0575,-0.0607,-0.063,-0.0667,-0.0663,-0.0695,-0.0711,-0.0701,-0.0702,-0.0702,-0.0664,-0.0661,-0.0698,-0.0698,-0.0698,0,-0.0363,-0.0379,-0.04,-0.0425,-0.0441,-0.049,-0.0513,-0.0508,-0.0521,-0.0499,-0.0503,-0.0548,-0.059,-0.0643,-0.0666,-0.0676,-0.0652,-0.069,-0.0701,-0.0702,-0.0702,-0.0663,-0.066,-0.0698,-0.0698,-0.0698,-0.0698,0,-0.0382,-0.0396,-0.0414,-0.0451,-0.0471,-0.0506,-0.0524,-0.0523,-0.0519,-0.0503,-0.0526,-0.0569,-0.0604,-0.0642,-0.067,-0.072,-0.0695,-0.0699,-0.0684,-0.0703,-0.0661,-0.0657,-0.0698,-0.0698,-0.0698,-0.0698,0,0,-0.0371,-0.0413,-0.0424,-0.0434,-0.0484,-0.0509,-0.0511,-0.0511,-0.0502,-0.051,-0.0487,-0.0578,-0.0607,-0.0641,-0.0699,-0.0716,-0.0712,-0.0719,-0.0718,-0.0665,-0.0659,-0.0523,-0.0506,-0.0707,-0.0707,-0.0707,-0.0619,0,-0.0382,-0.0419,-0.0435,-0.0471,-0.0488,-0.0511,-0.0498,-0.0504,-0.0495,-0.0474,-0.052,-0.0534,-0.0603,-0.0645,-0.0676,-0.0705,-0.0707,-0.0734,-0.0665,-0.0663,-0.0526,-0.0499,-0.0707,-0.0617,-0.0616,-0.0615,-0.0615,0,-0.04,-0.0415,-0.0441,-0.046,-0.0468,-0.0488,-0.0487,-0.0483,-0.0466,-0.0457,-0.0491,-0.0505,-0.0569,-0.0613,-0.0653,-0.066,-0.0671,-0.068,-0.0676,-0.0552,-0.052,-0.0604,-0.0608,-0.0609,-0.0609,-0.061,-0.061,0,-0.0382,-0.0425,-0.0438,-0.0446,-0.0471,-0.0468,-0.0479,-0.047,-0.0452,-0.0451,-0.0439,-0.049,-0.0517,-0.0545,-0.0577,-0.0613,-0.0571,-0.0611,-0.0488,-0.0477,-0.0631,-0.0632,-0.0617,-0.0617,-0.0618,-0.0618,-0.0618,0,-0.0383,-0.0402,-0.0431,-0.043,-0.0435,-0.0455,-0.0448,-0.0454,-0.0453,-0.0412,-0.0442,-0.0422,-0.0502,-0.0481,-0.0527,-0.0468,-0.0521,-0.0475,-0.0443,-0.0628,-0.063,-0.0626,-0.0628,-0.0615,-0.0615,-0.0616,-0.0617,0,-0.0377,-0.04,-0.0413,-0.0425,-0.0426,-0.0433,-0.044,-0.0432,-0.0427,-0.0384,-0.0379,-0.0367,-0.0302,-0.0331,-0.0347,-0.0372,-0.035,-0.0317,-0.047,-0.0451,-0.0281,-0.0284,-0.0175,-0.0169,-0.0164,-0.016,-0.0157,0,-0.0372,-0.0382,-0.0393,-0.0397,-0.0406,-0.0413,-0.0408,-0.0425,-0.0402,-0.0324,-0.0287,-0.0208,-0.0184,-0.0071,-0.0137,-0.013,-0.0155,-0.0161,-0.0279,-0.0254,-0.0235,-0.0246,-0.0255,-0.015,-0.0148,-0.0147,-0.0146,0,-0.0354,-0.0369,-0.0368,-0.0371,-0.0381,-0.0376,-0.0358,-0.0341,-0.0313,-0.0311,-0.0152,-0.0084,0.0023,0.0035,0.0064,0.0037,-0.0173,-0.0112,-0.0125,-0.0236,-0.0222,-0.021,-0.0225,-0.0129,-0.0132,-0.0133,-0.0134,0,-0.0344,-0.034,-0.0339,-0.0354,-0.035,-0.0317,-0.0323,-0.0251,-0.0226,-0.0132,-0.0066,0.0038,0.0069,0.0129,0.0146,0.0163,0.0124,0.0049,0.0026,0.0008,0.0021,0.0063,0.0291,0,0,0,0,0,-0.0321,-0.0315,-0.0317,-0.0313,-0.0303,-0.0298,-0.0271,-0.0271,-0.0232,-0.0095,-0.0074,0.0053,0.0158,0.0188,0.0239,0.0177,0.008,0.0229,-0.003,-0.0038,-0.0057,-0.0061,0,0,0,0,0,0,-0.0309,-0.0305,-0.0309,-0.0275,-0.0252,-0.0233,-0.0215,-0.0193,-0.0107,-0.0052,0.0018,0.0056,0.0152,0.0158,0.0248,0.0251,0.0086,0.0272,0.0273,-0.0027,-0.0044,-0.006,-0.0071,0,0,0,0,0]},{"header":{"parameterUnit":"m.s-1","parameterCategory":2,"la1":30.2991,"la2":30.254,"lo1":-89.0895,"lo2":-89.0444,"dy":0.0017,"dx":0.0017,"nx":28,"ny":28,"refTime":"2025-04-10T21:00:00:Z","depth":"4","parameterNumber":3,"parameterNumberName":"V-component_of_CURRENTS"},"data":[0,0,0,0,0,0,0,0,0,0,0,0,0,0,0,0,0,0,0,0,0,0,0,0,0,0,0,0,0,0,0,0,0,0,0,0,0,0,0,0,0,0,0,0,0,0,0,0,0,0,0,0,0,0,0,0,0,0,0.0109,0.011,0,0.0157,0.0157,0.0157,0.0171,0.0171,0.0171,0.0171,0.0083,0.0081,0.0078,0,0,0,0,0,0,0,0,0,0,0,0,0,0.0101,0.01,0.0109,0.011,0.0111,0.0157,0.0157,0.0158,0.0171,0.0171,0.0171,0.0171,0.0084,0.0081,0.0078,0,0,0,0,0,0,0,0,0,0,0,0,0,0.0119,0.01,0.0109,0.0125,0.0127,0.0157,0.0157,0.0158,0.0171,0.0171,0.0171,0.0171,0.0085,0.0081,0.0078,0.0056,0,0,0.0067,0.0065,0,0,0,0,0,0,0,0,0.0118,0.0118,0.0122,0.0124,0.0127,0.0161,0.0122,0.0118,0.0171,0.0151,0.0171,0.0171,0.0098,0.0094,0.01,0.0051,0.0048,0.0067,0.0065,0.0063,0.0062,0,0,0,0,0,0,0,0.0116,0.0117,0.0125,0.0123,0.0126,0.0155,0.0156,0.0122,0.0119,0.0153,0.0154,0.0165,0.0098,0.0104,0.0098,0.0046,0.0067,0.0064,0.0061,0.006,-0.0082,-0.0084,0,0,0,0,0,0,0.0113,0.0115,0.0123,0.0127,0.0126,0.0155,0.0157,0.0147,0.0122,0.0121,0.0165,0.0165,0.011,0.0102,0.0095,0.0029,0.0063,0.006,0.0058,-0.0081,-0.0083,-0.0084,0,0,0,0,0,0,0.0112,0.0112,0.0121,0.0126,0.013,0.0155,0.0144,0.0148,0.0152,0.0134,0.0129,0.0165,0.0109,0.0099,0.004,0.0027,0.0058,0.0055,-0.0079,-0.0081,-0.0083,-0.0078,0,0,0,0,0,0,0.0111,0.0111,0.0112,0.0125,0.0129,0.0139,0.0145,0.0149,0.016,0.0161,0.0131,0.0124,0.0109,0.0045,0.0037,0.0023,0.0052,-0.0076,-0.008,-0.0083,-0.0076,-0.008,-0.0084,0,0,0,0,0,0.011,0.0112,0.0111,0.0113,0.0125,0.0139,0.0144,0.0161,0.016,0.0163,0.0123,0.0125,0.002,0.0041,0.0031,0.0016,-0.0075,-0.0079,-0.0082,-0.0075,-0.008,-0.0084,0,0,0,0,0,0,0.0107,0.0114,0.0113,0.0115,0.0126,0.0143,0.0157,0.0158,0.0134,0.0126,0.0099,0.0088,0.0034,0.0015,0.004,-0.0037,-0.0026,-0.0032,-0.0017,-0.0021,-0.0025,-0.0007,0.0049,0,0,0,0,0,0.0106,0.0099,0.0117,0.0111,0.0125,0.0137,0.0147,0.0151,0.0134,0.0127,0.0095,0.0054,0.0012,-0.0012,-0.0049,-0.0094,-0.0093,-0.0112,-0.0115,-0.0118,-0.0113,-0.0137,-0.0141,-0.0097,-0.0097,-0.0097,0,0,0.0101,0.0102,0.0099,0.0109,0.0122,0.0114,0.0142,0.0153,0.0126,0.0116,0.0059,0.0038,-0.0005,-0.0055,-0.008,-0.0072,-0.013,-0.0123,-0.0125,-0.0118,-0.0141,-0.0145,-0.0148,-0.0099,-0.0099,-0.0098,0,0,0.0091,0.0092,0.0094,0.0095,0.0112,0.0107,0.0107,0.0113,0.0106,0.0056,0.0037,0.0002,-0.0063,-0.0091,-0.0115,-0.0167,-0.0149,-0.0174,-0.0176,-0.0199,-0.0202,-0.0205,-0.0195,-0.0197,-0.0174,-0.0174,-0.0174,0,0.0087,0.0078,0.0097,0.0094,0.0087,0.0095,0.0085,0.0071,0.0044,0.0028,0.0032,-0.0054,-0.0083,-0.0142,-0.015,-0.0173,-0.0166,-0.015,-0.02,-0.0203,-0.0206,-0.0196,-0.0198,-0.0174,-0.0174,-0.0174,-0.0174,0,0.0083,0.0067,0.0068,0.0047,0.0042,0.0034,0.002,-0.0005,-0.0022,-0.0033,-0.008,-0.0109,-0.0153,-0.0165,-0.017,-0.0205,-0.0186,-0.0199,-0.0179,-0.0209,-0.0198,-0.02,-0.0174,-0.0174,-0.0174,-0.0174,0,0,0.0078,0.0069,0.0061,0.0052,0.0015,0.0017,-0.0047,-0.0077,-0.0105,-0.0129,-0.0163,-0.0209,-0.019,-0.0216,-0.0219,-0.0227,-0.0231,-0.0208,-0.0209,-0.018,-0.0249,-0.0235,-0.0235,-0.0242,-0.0243,-0.0243,-0.0227,0,0.0063,0.0052,0.0037,-0.0006,-0.001,-0.0045,-0.0102,-0.0137,-0.0162,-0.0199,-0.0211,-0.0245,-0.0221,-0.0225,-0.0232,-0.0245,-0.0238,-0.0232,-0.024,-0.024,-0.0209,-0.0239,-0.0246,-0.0228,-0.0229,-0.0229,-0.0229,0,0.006,0.0048,0.0028,-0.002,-0.0023,-0.0059,-0.0126,-0.0172,-0.023,-0.0244,-0.0267,-0.0273,-0.0299,-0.0268,-0.0283,-0.0274,-0.0251,-0.0246,-0.0246,-0.0235,-0.0231,-0.0199,-0.0233,-0.0233,-0.0232,-0.0232,-0.0232,0,0.0062,0.0033,0.0019,0.0003,-0.0047,-0.0072,-0.0115,-0.0179,-0.0215,-0.0264,-0.0288,-0.0312,-0.0328,-0.0319,-0.0302,-0.0291,-0.0304,-0.0302,-0.0262,-0.026,-0.0275,-0.0273,-0.0296,-0.0296,-0.0296,-0.0296,-0.0296,0,0.0041,0.0023,0.0032,0.0016,-0.0015,-0.005,-0.0106,-0.0151,-0.0214,-0.0251,-0.0291,-0.0314,-0.0338,-0.0349,-0.0319,-0.0299,-0.0323,-0.0261,-0.0263,-0.0273,-0.0271,-0.0275,-0.0273,-0.0295,-0.0295,-0.0296,-0.0296,0,0.003,0.0032,0.002,-0.0005,-0.0013,-0.0032,-0.0108,-0.0142,-0.0203,-0.0255,-0.0272,-0.0329,-0.035,-0.0361,-0.0358,-0.0327,-0.0311,-0.0288,-0.0282,-0.0284,-0.0238,-0.0236,-0.025,-0.0249,-0.0249,-0.0249,-0.0248,0,0.0028,0.003,0.0019,0.0014,0.0003,-0.0034,-0.0068,-0.0133,-0.0168,-0.0251,-0.0266,-0.0316,-0.0344,-0.0326,-0.0345,-0.0318,-0.0298,-0.0277,-0.0264,-0.0237,-0.0237,-0.0236,-0.0235,-0.0248,-0.0248,-0.0248,-0.0248,0,0.0015,0.002,0.0006,0.0012,0.0001,-0.0045,-0.0088,-0.0106,-0.0175,-0.0221,-0.0238,-0.0255,-0.0289,-0.0302,-0.0295,-0.0267,-0.0296,-0.0272,-0.0272,-0.026,-0.0235,-0.0235,-0.0234,-0.0246,-0.0246,-0.0247,-0.0247,0,0.0011,0.0005,0.0006,0.0002,-0.0011,-0.0045,-0.0076,-0.0098,-0.0137,-0.0192,-0.0189,-0.0237,-0.027,-0.0274,-0.0263,-0.0256,-0.0241,-0.0202,-0.0205,-0.0207,-0.0207,-0.017,-0.0164,0,0,0,0,0,0.0008,-0.0004,-0.0005,-0.0011,-0.0023,-0.0039,-0.0083,-0.0111,-0.0146,-0.0131,-0.0158,-0.0175,-0.019,-0.0219,-0.0204,-0.0273,-0.0261,-0.0255,-0.0222,-0.0239,-0.024,-0.0248,0,0,0,0,0,0,-0.0001,-0.0004,-0.001,-0.0022,-0.0022,-0.0048,-0.0076,-0.0101,-0.0098,-0.0119,-0.0127,-0.0139,-0.0165,-0.0186,-0.0192,-0.02,-0.0167,-0.0275,-0.0274,-0.0238,-0.0239,-0.0241,-0.0249,0,0,0,0,0]}]]